Glasgow, United Kingdom

6:35 AM GMT on November 23, 2017 (GMT +0000)
Glasgow

Weather History for EGPF - November, 2013

Change the Weather History Date:

Saturday, November 9, 2013

  Actual Average Record
Temperature  
Mean Temperature 35 °F -  
Max Temperature 42 °F 46 °F 59 °F (1998)
Min Temperature 28 °F 36 °F 28 °F (1997)
Degree Days  
Heating Degree Days 30    
Moisture  
Dew Point 34 °F    
Average Humidity 97    
Maximum Humidity 100    
Minimum Humidity 87    
Precipitation  
Precipitation 0.00 in - - ()
Sea Level Pressure  
Sea Level Pressure 29.53 in    
Wind  
Wind Speed 3 mph ()    
Max Wind Speed 7 mph    
Max Gust Speed -    
Visibility 5.6 miles    
Events Fog , Rain    
Averages and records for this station are not official NWS values.
T = Trace of Precipitation, MM = Missing Value Source: Averaged Metar Reports

Daily Weather History Graph

Daily Weather History Graph

Search for Another Location

Airport or City:

Trip Planner

Search our weather history database for the weather conditions in past years. The results will help you decide how hot, cold, wet, or windy it might be!

Date:

Astronomy

Nov. 09, 2013 Rise Set
Actual Time 7:41 AM GMT 4:20 PM GMT
Civil Twilight 7:00 AM GMT 5:01 PM GMT
Nautical Twilight 6:15 AM GMT 5:46 PM GMT
Astronomical Twilight 5:32 AM GMT 6:29 PM GMT
Moon 1:00 PM GMT (11/9) 10:47 PM GMT (11/9)
Length of Visible Light 10h 01m
Length of Day
8h 39m
Waxing Crescent, 41% of the Moon is Illuminated
Nov 9
Waxing Crescent
Nov 10
First Quarter
Nov 17
Full
Nov 25
Last Quarter
Dec 3
New

Hourly Weather History & Observations

Time (GMT) Temp. Windchill Dew Point Humidity Pressure Visibility Wind Dir Wind Speed Gust Speed Precip Events Conditions
12:20 AM 37.4 °F 34.9 °F 35.6 °F 93% 29.53 in 6.2 mi NW 3.5 mph - N/A   Partly Cloudy
12:50 AM 37.4 °F 34.9 °F 37.4 °F 100% 29.53 in 3.1 mi WSW 3.5 mph - N/A Rain Rain
1:20 AM 37.4 °F - 35.6 °F 93% 29.53 in 6.2 mi SW 2.3 mph - N/A   Mostly Cloudy
1:50 AM 35.6 °F - 35.6 °F 100% 29.53 in 6.2 mi Calm Calm - N/A   Scattered Clouds
2:20 AM 35.6 °F - 33.8 °F 93% 29.53 in 6.2 mi Variable 2.3 mph - N/A   Mostly Cloudy
2:50 AM 35.6 °F 32.8 °F 35.6 °F 100% 29.53 in 6.2 mi Variable 3.5 mph - N/A   Overcast
3:20 AM 35.6 °F - 35.6 °F 100% 29.53 in 6.2 mi Calm Calm - N/A   Mostly Cloudy
3:50 AM 35.6 °F - 33.8 °F 93% 29.53 in 6.2 mi Variable 2.3 mph - N/A   Mostly Cloudy
4:20 AM 33.8 °F - 33.8 °F 100% 29.50 in 6.2 mi Variable 2.3 mph - N/A   Partly Cloudy
4:50 AM 35.6 °F - 33.8 °F 93% 29.50 in 6.2 mi East 2.3 mph - N/A Fog Shallow Fog
5:20 AM 33.8 °F - 33.8 °F 100% 29.50 in 6.2 mi Variable 2.3 mph - N/A Fog Shallow Fog
5:50 AM 33.8 °F 30.8 °F 33.8 °F 100% 29.50 in 5.6 mi ENE 3.5 mph - N/A   Scattered Clouds
6:20 AM 33.8 °F 30.8 °F 33.8 °F 100% 29.50 in 5.6 mi Variable 3.5 mph - N/A   Scattered Clouds
6:50 AM 33.8 °F 29.6 °F 33.8 °F 100% 29.50 in 5.0 mi ENE 4.6 mph - N/A   Partly Cloudy
7:20 AM 33.8 °F - 33.8 °F 100% 29.50 in 6.2 mi Variable 2.3 mph - N/A   Mostly Cloudy
7:50 AM 35.6 °F 32.8 °F 33.8 °F 93% 29.50 in 2.8 mi NNE 3.5 mph - N/A Rain Rain
8:20 AM 35.6 °F 32.8 °F 35.6 °F 100% 29.53 in 5.6 mi ESE 3.5 mph - N/A   Light Drizzle
8:50 AM 35.6 °F 29.9 °F 35.6 °F 100% 29.50 in 6.2 mi SSE 6.9 mph - N/A   Mostly Cloudy
9:20 AM 37.4 °F 34.9 °F 37.4 °F 100% 29.50 in 3.7 mi Variable 3.5 mph - N/A Rain Rain
9:50 AM 37.4 °F 33.8 °F 37.4 °F 100% 29.50 in 5.0 mi East 4.6 mph - N/A Rain Light Rain
10:20 AM 39.2 °F - 39.2 °F 100% 29.50 in 6.2 mi Variable 2.3 mph - N/A Rain Light Rain
10:50 AM 39.2 °F 35.9 °F 39.2 °F 100% 29.50 in 6.2 mi SSE 4.6 mph - N/A   Mostly Cloudy
11:20 AM 41.0 °F - 39.2 °F 93% 29.50 in 6.2 mi Variable 2.3 mph - N/A   Mostly Cloudy
11:50 AM 41.0 °F 38.0 °F 39.2 °F 93% 29.50 in 6.2 mi West 4.6 mph - N/A   Mostly Cloudy
12:20 PM 41.0 °F 37.1 °F 39.2 °F 93% 29.50 in 6.2 mi West 5.8 mph - N/A   Mostly Cloudy
12:50 PM 41.0 °F 36.4 °F 37.4 °F 87% 29.50 in 6.2 mi West 6.9 mph - N/A   Mostly Cloudy
1:20 PM 42.8 °F 40.1 °F 39.2 °F 87% 29.50 in 6.2 mi WNW 4.6 mph - N/A   Mostly Cloudy
1:50 PM 39.2 °F 35.0 °F 37.4 °F 93% 29.50 in 6.2 mi NW 5.8 mph - N/A Rain Light Rain
2:20 PM 39.2 °F 35.9 °F 37.4 °F 93% 29.50 in 6.2 mi WSW 4.6 mph - N/A Rain Light Rain
2:50 PM 39.2 °F 34.2 °F 37.4 °F 93% 29.50 in 6.2 mi WSW 6.9 mph - N/A Rain Light Rain Showers
3:20 PM 37.4 °F 34.9 °F 35.6 °F 93% 29.50 in 6.2 mi WSW 3.5 mph - N/A   Scattered Clouds
3:50 PM 39.2 °F 35.0 °F 37.4 °F 93% 29.50 in 6.2 mi West 5.8 mph - N/A Rain Light Rain
4:20 PM 37.4 °F 33.8 °F 35.6 °F 93% 29.50 in 6.2 mi West 4.6 mph - N/A Rain Light Rain
4:50 PM 37.4 °F 34.9 °F 35.6 °F 93% 29.50 in 6.2 mi Variable 3.5 mph - N/A   Scattered Clouds
5:20 PM 35.6 °F 32.8 °F 33.8 °F 93% 29.53 in 6.2 mi ENE 3.5 mph - N/A   Partly Cloudy
5:50 PM 33.8 °F 29.6 °F 33.8 °F 100% 29.53 in 6.2 mi WSW 4.6 mph - N/A   Partly Cloudy
6:20 PM 33.8 °F 30.8 °F 33.8 °F 100% 29.53 in 6.2 mi West 3.5 mph - N/A   Partly Cloudy
6:50 PM 32.0 °F 26.4 °F 30.2 °F 93% 29.53 in 6.2 mi WSW 5.8 mph - N/A   Partly Cloudy
7:20 PM 32.0 °F 28.7 °F 32.0 °F 100% 29.56 in 6.2 mi Variable 3.5 mph - N/A   Partly Cloudy
7:50 PM 32.0 °F 28.7 °F 30.2 °F 93% 29.56 in 6.2 mi SW 3.5 mph - N/A   Partly Cloudy
8:20 PM 30.2 °F - 30.2 °F 100% 29.56 in 3.1 mi Calm Calm - N/A   Partly Cloudy
8:50 PM 28.4 °F - 28.4 °F 100% 29.56 in 3.1 mi WSW 2.3 mph - N/A   Mist
9:20 PM 30.2 °F - 30.2 °F 100% 29.59 in - Variable 2.3 mph - N/A   Partly Cloudy
9:50 PM 28.4 °F 23.3 °F 28.4 °F 100% 29.59 in 4.3 mi SW 4.6 mph - N/A   Partly Cloudy
10:20 PM 28.4 °F 23.3 °F 28.4 °F 100% 29.62 in 5.6 mi SSW 4.6 mph - N/A   Unknown
10:50 PM 28.4 °F - 28.4 °F 100% 29.62 in 4.3 mi SSW 2.3 mph - N/A   Unknown
11:20 PM 28.4 °F 24.6 °F 28.4 °F 100% 29.65 in 4.3 mi SSW 3.5 mph - N/A   Unknown
11:50 PM 28.4 °F 23.3 °F 28.4 °F 100% 29.65 in - WSW 4.6 mph - N/A   Clear